Home   Weather   Taunton   Past weeks

Flag for United Kingdom Past Weather in Taunton, England, United Kingdom — Yesterday and Last 2 Weeks

Now
53 °F

Cool.


Feels Like: 50 °F
Forecast: 38 / 50 °F
Wind: 10 mph from Northwest

Location: Dunkeswell Aerodrome

Current Time: Apr 24, 2017 at 6:27:26 pm

Latest Report: Apr 24, 2017 at 5:00 pm


Visibility: 31 mi

Pressure: 29.97 "Hg

Humidity: 59%

Dew Point: 39 °F

Location of TauntonLocation

Past Weather in Taunton — Graph

°F

Taunton Temperature Yesterday

Maximum temperature yesterday: 59 °F (at 2:00 pm)
Minimum temperature yesterday: 37 °F (at 6:00 am)
Average temperature yesterday: 48 °F

High & Low Weather Summary for the Past Weeks

 TemperatureHumidityPressure
High59 °F (Apr 22, 4:00 pm)100% (Apr 13, 6:00 am)30.64 "Hg (Apr 13, 6:00 am)
Low36 °F (Apr 19, 7:00 am)42% (Apr 18, 3:00 pm)29.97 "Hg (Apr 24, 5:00 pm)
Average47 °F77%30.31 "Hg
* Reported Apr 9 5:00 pm — Apr 24 5:00 pm, Taunton, Weather by CustomWeather, © 2017

Note: Actual official high and low records may vary slightly from our data, if they occured in-between our weather recording intervals... More about our weather records

Advertising

Taunton Weather History for the Previous 24 Hours

Scroll right to see more
 ConditionsComfort  
Time TempWeatherWind HumidityBarometerVisibility
5:00 pm
Mon, Apr 24
53 °FCool.10 mph59%29.97 "Hg31 mi
4:00 pm52 °FCool.9 mph61%29.99 "Hg31 mi
3:00 pm54 °FCool.12 mph60%30.00 "Hg22 mi
2:00 pm52 °FCool.9 mph71%30.02 "Hg22 mi
1:00 pm51 °FCool.7 mph74%30.05 "Hg25 mi
12:00 pm52 °FCool.9 mph69%30.06 "Hg31 mi
11:00 am53 °FCool.9 mph64%30.07 "Hg31 mi
10:00 am51 °FCool.7 mph73%30.09 "Hg31 mi
9:00 am49 °FCool.8 mph73%30.10 "Hg31 mi
8:00 am45 °FCool.3 mph84%30.11 "Hg31 mi
7:00 am42 °FQuite cool.2 mph89%30.13 "Hg25 mi
6:00 am42 °FQuite cool.5 mph92%30.13 "Hg22 mi
5:00 am40 °FQuite cool.3 mph88%30.15 "Hg31 mi
4:00 am40 °FChilly.1 mph86%30.16 "Hg28 mi
3:00 am42 °FQuite cool.5 mph86%30.18 "Hg31 mi
2:00 am41 °FQuite cool.2 mph86%30.19 "Hg22 mi
1:00 am43 °FQuite cool.3 mph91%30.21 "Hg16 mi
12:00 am44 °FQuite cool.3 mph88%30.22 "Hg18 mi
11:00 pm
Sun, Apr 23
45 °FCool.2 mph87%30.23 "Hg16 mi
10:00 pm46 °FFog.5 mph95%30.24 "Hg4 mi
9:00 pm47 °FCool.3 mph85%30.24 "Hg7 mi
8:00 pm51 °FCool.5 mph85%30.24 "Hg9 mi
7:00 pm52 °FCool.6 mph81%30.24 "Hg12 mi
6:00 pm52 °FCool.6 mph78%30.26 "Hg11 mi
Weather by CustomWeather, © 2017

See weather overviewHow to use our weather pages